Tracking 22836 objects as of 18-Apr-2021
HD Live streaming from Space Station
objects crossing your sky now

GEOTAIL

Track GEOTAIL now!
GEOTAIL is classified as:


NORAD ID: 22049
Int'l Code: 1992-044A
Perigee: 53,175.4 km
Apogee: 187,920.1 km
Inclination: 38.3 °
Period: 7,499.8 minutes
Semi major axis: 126918 km
RCS: 3.5 m2 (large)
Launch date: July 24, 1992
Source: Japan (JPN)
Launch site: AIR FORCE EASTERN TEST RANGE (AFETR)

Study the dynamics of the Earth's magnetotail over a wide range of distance
aabbcc
Your satellite tracking list
Your tracking list is empty




NASA's NSSDC Master Catalog

Two Line Element Set (TLE):
1 22049U 92044A   21108.82913681 -.00001308  00000-0  00000+0 0  9998
2 22049  38.3297  42.9030 5308307 180.8572 357.0408  0.19200573 12137
Source of the keplerian elements: AFSPC